| time (UTC) | temp F | wind direction | speed MPH | gust MPH | rain 1hr in | rain 24hr in | rain mn in | humidity % | barometer mb |
| 20260502233656 | 50 | 357 | 4.0 | 11.0 | 0.00 | 0.00 | 0.00 | 31 | |
| 20260502233156 | 50 | 306 | 3.0 | 12.0 | 0.00 | 0.00 | 0.00 | 30 | |
| 20260502232656 | 50 | 347 | 6.0 | 13.0 | 0.00 | 0.00 | 0.00 | 30 | |
| 20260502232156 | 50 | 357 | 7.0 | 16.0 | 0.00 | 0.00 | 0.00 | 31 | |
| 20260502231656 | 50 | 358 | 7.0 | 13.0 | 0.00 | 0.00 | 0.00 | 29 | |
| 20260502231156 | 50 | 331 | 8.0 | 15.0 | 0.00 | 0.00 | 0.00 | 30 | |
| 20260502230656 | 50 | 1 | 2.0 | 15.0 | 0.00 | 0.00 | 0.00 | 32 | |
| 20260502230156 | 50 | 348 | 5.0 | 12.0 | 0.00 | 0.00 | 0.00 | 30 | |
| 20260502225656 | 50 | 358 | 7.0 | 12.0 | 0.00 | 0.00 | 0.00 | 29 | |
| 20260502225156 | 51 | 347 | 5.0 | 10.0 | 0.00 | 0.00 | 0.00 | 32 | |
| 20260502224656 | 50 | 358 | 9.0 | 12.0 | 0.00 | 0.00 | 0.00 | 29 | |
| 20260502224156 | 50 | 327 | 10.0 | 16.0 | 0.00 | 0.00 | 0.00 | 29 | |
| 20260502223656 | 51 | 8 | 7.0 | 16.0 | 0.00 | 0.00 | 0.00 | 28 | |
| 20260502223156 | 51 | 26 | 13.0 | 18.0 | 0.00 | 0.00 | 0.00 | 29 | |
| 20260502222656 | 51 | 310 | 10.0 | 13.0 | 0.00 | 0.00 | 0.00 | 28 | |
| 20260502222156 | 51 | 329 | 4.0 | 16.0 | 0.00 | 0.00 | 0.00 | 29 | |
| 20260502221656 | 51 | 319 | 10.0 | 17.0 | 0.00 | 0.00 | 0.00 | 28 | |
| 20260502221156 | 51 | 319 | 5.0 | 14.0 | 0.00 | 0.00 | 0.00 | 28 | |
| 20260502220656 | 51 | 30 | 6.0 | 15.0 | 0.00 | 0.00 | 0.00 | 29 | |
| 20260502220156 | 50 | 358 | 7.0 | 15.0 | 0.00 | 0.00 | 0.00 | 27 | |
| 20260502215656 | 50 | 344 | 6.0 | 13.0 | 0.00 | 0.00 | 0.00 | 28 | |
| 20260502215156 | 51 | 29 | 6.0 | 16.0 | 0.00 | 0.00 | 0.00 | 31 | |
| 20260502214656 | 51 | 329 | 11.0 | 15.0 | 0.00 | 0.00 | 0.00 | 28 | |
| 20260502214156 | 51 | 298 | 13.0 | 17.0 | 0.00 | 0.00 | 0.00 | 27 | |
| 20260502213656 | 50 | 16 | 9.0 | 15.0 | 0.00 | 0.00 | 0.00 | 29 | |
| 20260502213156 | 51 | 15 | 2.0 | 16.0 | 0.00 | 0.00 | 0.00 | 30 | |
| 20260502212656 | 51 | 286 | 9.0 | 15.0 | 0.00 | 0.00 | 0.00 | 27 | |
| 20260502212157 | 50 | 298 | 7.0 | 15.0 | 0.00 | 0.00 | 0.00 | 26 | |
| 20260502211656 | 51 | 285 | 7.0 | 15.0 | 0.00 | 0.00 | 0.00 | 27 | |
| 20260502211157 | 50 | 358 | 8.0 | 15.0 | 0.00 | 0.00 | 0.00 | 26 | |
| 20260502210657 | 50 | 324 | 11.0 | 14.0 | 0.00 | 0.00 | 0.00 | 28 | |
| 20260502210157 | 50 | 23 | 8.0 | 13.0 | 0.00 | 0.00 | 0.00 | 30 | |
| 20260502205657 | 50 | 312 | 11.0 | 18.0 | 0.00 | 0.00 | 0.00 | 27 | |
| 20260502205157 | 50 | 324 | 9.0 | 18.0 | 0.00 | 0.00 | 0.00 | 26 | |
| 20260502204657 | 50 | 358 | 7.0 | 7.0 | 0.00 | 0.00 | 0.00 | 31 | |
| 20260502204157 | 50 | 341 | 6.0 | 11.0 | 0.00 | 0.00 | 0.00 | 35 | |
| 20260502203657 | 50 | 341 | 7.0 | 10.0 | 0.00 | 0.00 | 0.00 | 37 | |
| 20260502203157 | 49 | 257 | 5.0 | 17.0 | 0.00 | 0.00 | 0.00 | 41 | |
| 20260502202657 | 50 | 250 | 14.0 | 16.0 | 0.00 | 0.00 | 0.00 | 40 | |
| 20260502202157 | 50 | 9 | 8.0 | 14.0 | 0.00 | 0.00 | 0.00 | 38 | |
| 20260502201657 | 50 | 277 | 9.0 | 19.0 | 0.00 | 0.00 | 0.00 | 39 | |
| 20260502201157 | 50 | 248 | 8.0 | 14.0 | 0.00 | 0.00 | 0.00 | 34 | |
| 20260502200657 | 50 | 289 | 9.0 | 21.0 | 0.00 | 0.00 | 0.00 | 39 | |
| 20260502200157 | 49 | 279 | 8.0 | 16.0 | 0.00 | 0.00 | 0.00 | 38 | |
| 20260502195657 | 50 | 344 | 4.0 | 17.0 | 0.00 | 0.00 | 0.00 | 37 | |
| 20260502195157 | 50 | 288 | 11.0 | 16.0 | 0.00 | 0.00 | 0.00 | 39 | |
| 20260502194657 | 49 | 284 | 4.0 | 12.0 | 0.00 | 0.00 | 0.00 | 38 | |
| 20260502194157 | 49 | 260 | 10.0 | 16.0 | 0.00 | 0.00 | 0.00 | 37 | |
| 20260502193657 | 51 | 350 | 4.0 | 13.0 | 0.00 | 0.00 | 0.00 | 39 | |
| 20260502193157 | 49 | 319 | 7.0 | 16.0 | 0.00 | 0.00 | 0.00 | 37 | |
| 20260502192657 | 49 | 336 | 11.0 | 17.0 | 0.00 | 0.00 | 0.00 | 39 | |
| 20260502192157 | 49 | 307 | 7.0 | 16.0 | 0.00 | 0.00 | 0.00 | 41 | |
| 20260502191657 | 49 | 303 | 12.0 | 17.0 | 0.00 | 0.00 | 0.00 | 40 | |
| 20260502191157 | 49 | 262 | 7.0 | 13.0 | 0.00 | 0.00 | 0.00 | 39 | |
| 20260502190657 | 50 | 250 | 8.0 | 16.0 | 0.00 | 0.00 | 0.00 | 38 | |
| 20260502190157 | 49 | 271 | 11.0 | 16.0 | 0.00 | 0.00 | 0.00 | 41 | |
| 20260502185657 | 48 | 289 | 6.0 | 15.0 | 0.00 | 0.00 | 0.00 | 40 | |
| 20260502185157 | 47 | 334 | 3.0 | 17.0 | 0.00 | 0.00 | 0.00 | 40 | |
| 20260502184657 | 48 | 329 | 11.0 | 14.0 | 0.00 | 0.00 | 0.00 | 41 | |
| 20260502184157 | 48 | 340 | 6.0 | 15.0 | 0.00 | 0.00 | 0.00 | 41 | |
| 20260502183657 | 48 | 267 | 5.0 | 18.0 | 0.00 | 0.00 | 0.00 | 42 | |
| 20260502183157 | 47 | 324 | 8.0 | 15.0 | 0.00 | 0.00 | 0.00 | 42 | |
| 20260502182657 | 48 | 317 | 11.0 | 14.0 | 0.00 | 0.00 | 0.00 | 43 | |
| 20260502182157 | 47 | 285 | 7.0 | 10.0 | 0.00 | 0.00 | 0.00 | 40 | |
| 20260502181657 | 47 | 354 | 4.0 | 13.0 | 0.00 | 0.00 | 0.00 | 41 | |
| 20260502181157 | 47 | 312 | 7.0 | 13.0 | 0.00 | 0.00 | 0.00 | 41 | |
| 20260502180657 | 47 | 285 | 3.0 | 13.0 | 0.00 | 0.00 | 0.00 | 41 | |
| 20260502180157 | 47 | 262 | 7.0 | 12.0 | 0.00 | 0.00 | 0.00 | 40 | |
| 20260502170157 | 46 | 312 | 5.0 | 9.0 | 0.00 | 0.00 | 0.00 | 47 | |
| 20260502164157 | 45 | 307 | 4.0 | 10.0 | 0.00 | 0.00 | 0.00 | 46 | |
| 20260502163657 | 44 | 334 | 9.0 | 13.0 | 0.00 | 0.00 | 0.00 | 46 | |
| 20260502163157 | 45 | 14 | 1.0 | 9.0 | 0.00 | 0.00 | 0.00 | 48 | |
| 20260502162657 | 45 | 285 | 9.0 | 10.0 | 0.00 | 0.00 | 0.00 | 49 | |
| 20260502162157 | 44 | 274 | 10.0 | 10.0 | 0.00 | 0.00 | 0.00 | 48 | |
| 20260502161657 | 45 | 334 | 5.0 | 11.0 | 0.00 | 0.00 | 0.00 | 50 | |
| 20260502161157 | 45 | 340 | 6.0 | 8.0 | 0.00 | 0.00 | 0.00 | 49 | |
| 20260502160657 | 45 | 5 | 0.0 | 13.0 | 0.00 | 0.00 | 0.00 | 50 | |
| 20260502160157 | 44 | 23 | 3.0 | 16.0 | 0.00 | 0.00 | 0.00 | 50 | |
| 20260502152157 | 44 | 312 | 8.0 | 11.0 | 0.00 | 0.00 | 0.00 | 51 | |
| 20260502151657 | 42 | 9 | 9.0 | 15.0 | 0.00 | 0.00 | 0.00 | 51 | |
| 20260502151157 | 42 | 354 | 13.0 | 14.0 | 0.00 | 0.00 | 0.00 | 52 | |
| 20260502150657 | 42 | 292 | 7.0 | 11.0 | 0.00 | 0.00 | 0.00 | 52 | |
| 20260502150157 | 43 | 313 | 8.0 | 16.0 | 0.00 | 0.00 | 0.00 | 53 | |
| 20260502130657 | 39 | 351 | 6.0 | 7.0 | 0.00 | 0.00 | 0.00 | 78 | |
| 20260502130157 | 38 | 322 | 3.0 | 9.0 | 0.00 | 0.00 | 0.00 | 79 | |
| 20260502123657 | 37 | 327 | 2.0 | 4.0 | 0.00 | 0.00 | 0.00 | 83 | |
| 20260502123157 | 36 | 323 | 1.0 | 4.0 | 0.00 | 0.00 | 0.00 | 84 | |
| 20260502122657 | 36 | 340 | 2.0 | 4.0 | 0.00 | 0.00 | 0.00 | 86 | |
| 20260502122157 | 35 | 21 | 0.0 | 1.0 | 0.00 | 0.00 | 0.00 | 88 | |
| 20260502121657 | 35 | 343 | 0.0 | 4.0 | 0.00 | 0.00 | 0.00 | 88 | |
| 20260502121157 | 34 | 336 | 1.0 | 3.0 | 0.00 | 0.00 | 0.00 | 88 | |
| 20260502120657 | 33 | 1 | 1.0 | 3.0 | 0.00 | 0.00 | 0.00 | 88 | |
| 20260502120157 | 33 | 9 | 1.0 | 2.0 | 0.00 | 0.00 | 0.00 | 89 | |
| 20260502115657 | 33 | 327 | 0.0 | 3.0 | 0.00 | 0.00 | 0.00 | 89 | |
| 20260502115157 | 32 | 225 | 0.0 | 0.0 | 0.00 | 0.00 | 0.00 | 90 | |
| 20260502114657 | 32 | 225 | 0.0 | 0.0 | 0.00 | 0.00 | 0.00 | 89 | |
| 20260502114158 | 31 | 225 | 0.0 | 0.0 | 0.00 | 0.00 | 0.00 | 90 | |
| 20260502113658 | 31 | 225 | 0.0 | 0.0 | 0.00 | 0.00 | 0.00 | 90 | |
| 20260502113158 | 31 | 225 | 0.0 | 0.0 | 0.00 | 0.00 | 0.00 | 90 | |
| 20260502112658 | 30 | 225 | 0.0 | 0.0 | 0.00 | 0.00 | 0.00 | 90 | |
| 20260502112158 | 30 | 225 | 0.0 | 0.0 | 0.00 | 0.00 | 0.00 | 90 | |
| 20260502111658 | 30 | 225 | 0.0 | 0.0 | 0.00 | 0.00 | 0.00 | 89 | |
| 20260502111158 | 30 | 225 | 0.0 | 0.0 | 0.00 | 0.00 | 0.00 | 89 | |
| 20260502110658 | 30 | 225 | 0.0 | 0.0 | 0.00 | 0.00 | 0.00 | 89 | |
| 20260502110158 | 30 | 225 | 0.0 | 0.0 | 0.00 | 0.00 | 0.00 | 89 | |
| 20260502105658 | 30 | 225 | 0.0 | 0.0 | 0.00 | 0.00 | 0.00 | 89 | |
| 20260502105158 | 29 | 225 | 0.0 | 0.0 | 0.00 | 0.00 | 0.00 | 89 | |
| 20260502104658 | 29 | 225 | 0.0 | 0.0 | 0.00 | 0.00 | 0.00 | 89 | |
| 20260502104158 | 29 | 225 | 0.0 | 0.0 | 0.00 | 0.00 | 0.00 | 88 | |
| 20260502103658 | 29 | 225 | 0.0 | 0.0 | 0.00 | 0.00 | 0.00 | 88 | |
| 20260502103158 | 29 | 225 | 0.0 | 0.0 | 0.00 | 0.00 | 0.00 | 88 | |
| 20260502102658 | 30 | 225 | 0.0 | 0.0 | 0.00 | 0.00 | 0.00 | 87 | |
| 20260502102158 | 30 | 225 | 0.0 | 0.0 | 0.00 | 0.00 | 0.00 | 87 | |
| 20260502101658 | 30 | 225 | 0.0 | 0.0 | 0.00 | 0.00 | 0.00 | 87 | |
| 20260502101158 | 30 | 225 | 0.0 | 0.0 | 0.00 | 0.00 | 0.00 | 87 | |
| 20260502100658 | 31 | 225 | 0.0 | 0.0 | 0.00 | 0.00 | 0.00 | 87 | |
| 20260502100158 | 31 | 225 | 0.0 | 0.0 | 0.00 | 0.00 | 0.00 | 87 | |
| 20260502091158 | 31 | 323 | 0.0 | 0.0 | 0.00 | 0.00 | 0.00 | 84 | |
| 20260502090658 | 31 | 323 | 0.0 | 0.0 | 0.00 | 0.00 | 0.00 | 83 | |
| 20260502090158 | 32 | 323 | 0.0 | 0.0 | 0.00 | 0.00 | 0.00 | 83 | |
| 20260502071158 | 35 | 323 | 0.0 | 0.0 | 0.00 | 0.00 | 0.00 | 76 | |
| 20260502070658 | 36 | 323 | 0.0 | 0.0 | 0.00 | 0.00 | 0.00 | 76 | |
| 20260502070158 | 36 | 323 | 0.0 | 1.0 | 0.00 | 0.00 | 0.00 | 76 | |
| 20260502065658 | 36 | 343 | 0.0 | 0.0 | 0.00 | 0.00 | 0.00 | 75 | |
| 20260502065158 | 36 | 343 | 0.0 | 2.0 | 0.00 | 0.00 | 0.00 | 75 | |
| 20260502064658 | 36 | 352 | 1.0 | 1.0 | 0.00 | 0.00 | 0.00 | 74 | |
| 20260502064158 | 36 | 312 | 0.0 | 3.0 | 0.00 | 0.00 | 0.00 | 74 | |
| 20260502063658 | 36 | 344 | 1.0 | 2.0 | 0.00 | 0.00 | 0.00 | 74 | |
| 20260502063158 | 36 | 351 | 1.0 | 3.0 | 0.00 | 0.00 | 0.00 | 74 | |
| 20260502062658 | 36 | 351 | 0.0 | 2.0 | 0.00 | 0.00 | 0.00 | 74 | |
| 20260502062158 | 36 | 357 | 2.0 | 3.0 | 0.00 | 0.00 | 0.00 | 73 | |
| 20260502061658 | 36 | 317 | 2.0 | 2.0 | 0.00 | 0.00 | 0.00 | 73 | |
| 20260502061158 | 37 | 307 | 1.0 | 3.0 | 0.00 | 0.00 | 0.00 | 72 | |
| 20260502060658 | 37 | 299 | 0.0 | 3.0 | 0.00 | 0.00 | 0.00 | 72 | |
| 20260502060158 | 37 | 333 | 1.0 | 3.0 | 0.00 | 0.00 | 0.00 | 72 | |
| 20260502055658 | 37 | 343 | 1.0 | 2.0 | 0.00 | 0.00 | 0.00 | 71 | |
| 20260502055158 | 37 | 345 | 0.0 | 3.0 | 0.00 | 0.00 | 0.00 | 71 | |
| 20260502054658 | 37 | 2 | 0.0 | 3.0 | 0.00 | 0.00 | 0.00 | 71 | |
| 20260502054158 | 37 | 358 | 2.0 | 6.0 | 0.00 | 0.00 | 0.00 | 71 | |
| 20260502053658 | 37 | 350 | 3.0 | 3.0 | 0.00 | 0.00 | 0.00 | 70 | |
| 20260502053158 | 37 | 36 | 2.0 | 6.0 | 0.00 | 0.00 | 0.00 | 70 | |
| 20260502052658 | 37 | 7 | 5.0 | 5.0 | 0.00 | 0.00 | 0.00 | 70 | |
| 20260502052158 | 37 | 355 | 1.0 | 5.0 | 0.00 | 0.00 | 0.00 | 70 | |
| 20260502051658 | 37 | 343 | 3.0 | 7.0 | 0.00 | 0.00 | 0.00 | 69 | |
| 20260502051158 | 37 | 7 | 3.0 | 7.0 | 0.00 | 0.00 | 0.00 | 69 | |
| 20260502050658 | 37 | 35 | 3.0 | 6.0 | 0.00 | 0.00 | 0.00 | 69 | |
| 20260502050158 | 37 | 30 | 4.0 | 6.0 | 0.00 | 0.00 | 0.00 | 69 | |
| 20260502045658 | 37 | 345 | 6.0 | 7.0 | 0.00 | 0.00 | 0.00 | 69 | |
| 20260502045158 | 37 | 14 | 4.0 | 7.0 | 0.00 | 0.00 | 0.00 | 69 | |
| 20260502044658 | 37 | 11 | 5.0 | 7.0 | 0.00 | 0.00 | 0.00 | 69 | |
| 20260502044158 | 37 | 42 | 3.0 | 7.0 | 0.00 | 0.00 | 0.00 | 69 | |
| 20260502043658 | 37 | 23 | 2.0 | 5.0 | 0.00 | 0.00 | 0.00 | 68 | |
| 20260502043158 | 37 | 358 | 4.0 | 5.0 | 0.00 | 0.00 | 0.00 | 68 | |
| 20260502042658 | 37 | 7 | 2.0 | 4.0 | 0.00 | 0.00 | 0.00 | 68 | |
| 20260502042158 | 37 | 5 | 2.0 | 7.0 | 0.00 | 0.00 | 0.00 | 67 | |
| 20260502041658 | 37 | 344 | 2.0 | 5.0 | 0.00 | 0.00 | 0.00 | 67 | |
| 20260502041158 | 38 | 4 | 3.0 | 5.0 | 0.00 | 0.00 | 0.00 | 66 | |
| 20260502040658 | 38 | 4 | 3.0 | 7.0 | 0.00 | 0.00 | 0.00 | 66 | |
| 20260502040158 | 38 | 22 | 6.0 | 7.0 | 0.00 | 0.00 | 0.00 | 65 | |
| 20260502035658 | 38 | 2 | 4.0 | 8.0 | 0.00 | 0.00 | 0.00 | 66 | |
| 20260502035158 | 38 | 344 | 5.0 | 9.0 | 0.00 | 0.00 | 0.00 | 65 | |
| 20260502034658 | 38 | 352 | 3.0 | 7.0 | 0.00 | 0.00 | 0.00 | 65 | |
| 20260502034158 | 38 | 327 | 4.0 | 7.0 | 0.00 | 0.00 | 0.00 | 65 | |
| 20260502033658 | 38 | 1 | 3.0 | 8.0 | 0.00 | 0.00 | 0.00 | 65 | |
| 20260502033158 | 38 | 14 | 5.0 | 7.0 | 0.00 | 0.00 | 0.00 | 65 | |
| 20260502032658 | 38 | 357 | 3.0 | 7.0 | 0.00 | 0.00 | 0.00 | 65 | |
| 20260502032158 | 38 | 11 | 6.0 | 8.0 | 0.00 | 0.00 | 0.00 | 65 | |
| 20260502031658 | 38 | 345 | 5.0 | 9.0 | 0.00 | 0.00 | 0.00 | 65 | |
| 20260502031158 | 38 | 352 | 4.0 | 6.0 | 0.00 | 0.00 | 0.00 | 65 | |
| 20260502030658 | 38 | 358 | 3.0 | 7.0 | 0.00 | 0.00 | 0.00 | 64 | |
| 20260502030158 | 39 | 9 | 2.0 | 9.0 | 0.00 | 0.00 | 0.00 | 63 | |
| 20260502025658 | 39 | 22 | 8.0 | 9.0 | 0.00 | 0.00 | 0.00 | 63 | |
| 20260502025158 | 39 | 5 | 6.0 | 8.0 | 0.00 | 0.00 | 0.00 | 63 | |
| 20260502024658 | 39 | 350 | 4.0 | 8.0 | 0.00 | 0.00 | 0.00 | 63 | |
| 20260502024158 | 38 | 5 | 4.0 | 7.0 | 0.00 | 0.00 | 0.00 | 63 | |
| 20260502023658 | 39 | 7 | 6.0 | 9.0 | 0.00 | 0.00 | 0.00 | 63 | |
| 20260502023158 | 39 | 21 | 3.0 | 7.0 | 0.00 | 0.00 | 0.00 | 62 | |
| 20260502022658 | 39 | 15 | 3.0 | 9.0 | 0.00 | 0.00 | 0.00 | 61 | |
| 20260502022158 | 39 | 348 | 5.0 | 8.0 | 0.00 | 0.00 | 0.00 | 61 | |
| 20260502021658 | 39 | 351 | 6.0 | 7.0 | 0.00 | 0.00 | 0.00 | 60 | |
| 20260502021158 | 39 | 1 | 4.0 | 9.0 | 0.00 | 0.00 | 0.00 | 60 | |
| 20260502020658 | 39 | 11 | 4.0 | 9.0 | 0.00 | 0.00 | 0.00 | 59 | |
| 20260502020158 | 39 | 341 | 7.0 | 8.0 | 0.00 | 0.00 | 0.00 | 59 | |
| 20260502015659 | 39 | 2 | 4.0 | 8.0 | 0.00 | 0.00 | 0.00 | 58 | |
| 20260502015159 | 39 | 40 | 5.0 | 8.0 | 0.00 | 0.00 | 0.00 | 58 | |
| 20260502014659 | 39 | 28 | 6.0 | 9.0 | 0.00 | 0.00 | 0.00 | 57 | |
| 20260502014159 | 40 | 343 | 4.0 | 11.0 | 0.00 | 0.00 | 0.00 | 56 | |
| 20260502013659 | 40 | 358 | 7.0 | 10.0 | 0.00 | 0.00 | 0.00 | 55 | |
| 20260502013159 | 39 | 16 | 5.0 | 11.0 | 0.00 | 0.00 | 0.00 | 54 | |
| 20260502012659 | 40 | 26 | 8.0 | 9.0 | 0.00 | 0.00 | 0.00 | 55 | |
| 20260502012159 | 40 | 348 | 7.0 | 9.0 | 0.00 | 0.00 | 0.00 | 55 | |
| 20260502011659 | 40 | 322 | 8.0 | 11.0 | 0.00 | 0.00 | 0.00 | 54 | |
| 20260502011159 | 40 | 5 | 7.0 | 10.0 | 0.00 | 0.00 | 0.00 | 53 | |
| 20260502010659 | 40 | 327 | 8.0 | 10.0 | 0.00 | 0.00 | 0.00 | 52 | |
| 20260502010159 | 41 | 358 | 5.0 | 10.0 | 0.00 | 0.00 | 0.00 | 53 | |
| 20260502005659 | 41 | 42 | 8.0 | 12.0 | 0.00 | 0.00 | 0.00 | 53 | |
| 20260502005159 | 41 | 347 | 4.0 | 12.0 | 0.00 | 0.00 | 0.00 | 53 | |
| 20260502004659 | 41 | 30 | 7.0 | 12.0 | 0.00 | 0.00 | 0.00 | 53 | |
| 20260502004159 | 42 | 322 | 10.0 | 13.0 | 0.00 | 0.00 | 0.00 | 51 | |
| 20260502003659 | 42 | 343 | 5.0 | 7.0 | 0.00 | 0.00 | 0.00 | 51 | |
| 20260502003159 | 42 | 11 | 3.0 | 7.0 | 0.00 | 0.00 | 0.00 | 52 | |
| 20260502002659 | 42 | 25 | 6.0 | 8.0 | 0.00 | 0.00 | 0.00 | 51 | |
| 20260502002159 | 42 | 16 | 7.0 | 10.0 | 0.00 | 0.00 | 0.00 | 51 | |
| 20260502001659 | 42 | 358 | 8.0 | 11.0 | 0.00 | 0.00 | 0.00 | 50 | |
| 20260502001159 | 42 | 53 | 7.0 | 11.0 | 0.00 | 0.00 | 0.00 | 49 | |
| 20260502000659 | 42 | 12 | 6.0 | 9.0 | 0.00 | 0.00 | 0.00 | 51 | |
| 20260502000159 | 42 | 12 | 8.0 | 9.0 | 0.00 | 0.00 | 0.00 | 51 | |
| 20260501235659 | 42 | 46 | 2.0 | 11.0 | 0.00 | 0.00 | 0.00 | 52 | |
| 20260501235159 | 42 | 26 | 6.0 | 12.0 | 0.00 | 0.00 | 0.00 | 52 | |
| 20260501234659 | 42 | 348 | 10.0 | 14.0 | 0.00 | 0.00 | 0.00 | 50 | |
| 20260501234159 | 42 | 352 | 7.0 | 13.0 | 0.00 | 0.00 | 0.00 | 51 |